Date String (YYYY-MM-DD hh:mm:ss) UTC,Instrument flags,Ambient pressure (hPa),Sample flow (lpm),Bypass flow (lpm),Sample temperature (°C),Ambient temperature (°C),ASC tube jacket temperature (°C),LED temperature (°C),Box temperature (°C),Sample RH (%),Span deviation,Mass concentration (μg/m³),Mass concentration (μg/m³),Mass concentration (μg/m³)
DateTimeUTC,F1_M11,P_M11,Q1_M11,Q2_M11,T1_M11,T2_M11,T3_M11,T4_M11,T5_M11,U1_M11,ZSPAN_M11,X2_M11,X0_M11,X1_M11
2022-04-22 17:00:00,,0813.4,4.99,0.00,29.7,27.9,00.0,38.6,31.5,12.7,0000.0,0008.73,0030.77,0005.08
2022-04-22 17:01:00,,0813.4,5.01,0.00,29.7,28.2,00.0,38.6,31.5,12.7,-000.2,0008.66,0030.66,0005.07
2022-04-22 17:02:00,,0813.4,4.99,0.00,29.8,28.4,00.0,38.6,31.6,12.9,-001.4,0008.64,0029.69,0005.05
2022-04-22 17:03:00,,0813.4,5.01,0.00,29.8,28.6,00.0,38.6,31.6,13.3,-001.5,0008.66,0028.83,0005.06
2022-04-22 17:04:00,,0813.4,5.00,0.00,29.8,28.7,00.0,38.6,31.7,13.7,-001.5,0008.60,0029.10,0005.07
2022-04-22 17:05:00,,0813.4,5.01,0.00,29.9,28.9,00.0,38.6,31.7,12.6,-001.1,0008.58,0030.10,0005.06
2022-04-22 17:06:00,,0813.4,4.99,0.00,29.9,29.0,00.0,38.7,31.8,12.1,-001.4,0008.63,0030.93,0005.03
2022-04-22 17:07:00,,0813.4,5.01,0.00,30.0,28.9,00.0,38.7,31.7,12.2,-001.5,0008.57,0030.90,0005.05
2022-04-22 17:08:00,,0813.3,5.00,0.00,29.9,27.0,00.0,38.7,31.3,12.8,-001.6,0008.59,0030.35,0005.07
2022-04-22 17:09:00,,0813.3,5.01,0.00,29.7,25.6,00.0,38.7,31.1,12.4,-002.0,0008.52,0029.22,0005.11
2022-04-22 17:10:00,,0813.3,4.99,0.00,29.7,25.9,00.0,38.6,31.1,12.9,-002.0,0008.61,0028.55,0005.15
2022-04-22 17:11:00,,0813.3,5.00,0.00,29.6,26.4,00.0,38.6,31.1,13.0,-001.9,0008.62,0027.96,0005.19
2022-04-22 17:12:00,,0813.3,5.01,0.00,29.6,26.8,00.0,38.6,31.2,13.3,-001.3,0008.60,0028.74,0005.22
2022-04-22 17:13:00,,0813.2,5.00,0.00,29.6,27.3,00.0,38.5,31.3,12.7,-001.4,0008.63,0030.25,0005.24
2022-04-22 17:14:00,,0813.3,4.99,0.00,29.6,27.6,00.0,38.5,31.3,12.1,-001.8,0008.59,0030.83,0005.23
2022-04-22 17:15:00,,0813.2,5.00,0.00,29.6,27.9,00.0,38.5,31.4,12.0,-002.0,0008.66,0030.89,0005.22
2022-04-22 17:16:00,,0813.1,5.00,0.00,29.7,28.2,00.0,38.5,31.5,12.3,-002.2,0008.73,0031.50,0005.21
2022-04-22 17:17:00,,0813.1,5.01,0.00,29.7,28.4,00.0,38.5,31.5,12.2,-001.9,0008.78,0030.63,0005.25
2022-04-22 17:18:00,,0813.1,5.00,0.00,29.7,28.5,00.0,38.5,31.6,12.3,-001.4,0008.83,0030.47,0005.27
2022-04-22 17:19:00,,0813.0,5.00,0.00,29.8,28.7,00.0,38.6,31.6,12.5,-000.9,0008.75,0029.97,0005.26
2022-04-22 17:20:00,,0813.0,5.00,0.00,29.8,28.8,00.0,38.6,31.7,12.3,0000.0,0008.66,0030.86,0005.25
2022-04-22 17:21:00,,0813.0,5.01,0.00,29.9,28.6,00.0,38.6,31.6,12.0,-000.4,0008.59,0030.41,0005.23
2022-04-22 17:22:00,,0813.0,4.99,0.00,29.8,26.6,00.0,38.6,31.2,12.2,-000.7,0008.57,0029.71,0005.20
2022-04-22 17:23:00,,0812.9,5.00,0.00,29.6,25.5,00.0,38.6,31.0,11.9,-000.8,0008.61,0028.05,0005.17
2022-04-22 17:24:00,,0812.9,4.99,0.00,29.6,25.9,00.0,38.6,31.0,12.0,-000.3,0008.61,0027.42,0005.17
2022-04-22 17:25:00,,0812.8,5.00,0.00,29.5,26.3,00.0,38.5,31.0,12.1,0001.1,0008.61,0027.71,0005.19
2022-04-22 17:26:00,,0812.8,5.00,0.00,29.5,26.8,00.0,38.5,31.1,12.2,0001.4,0008.60,0027.82,0005.23
2022-04-22 17:27:00,,0812.8,4.98,0.00,29.5,27.2,00.0,38.4,31.2,12.1,0001.3,0008.58,0026.85,0005.25
2022-04-22 17:28:00,,0812.8,5.01,0.00,29.5,27.6,00.0,38.4,31.3,12.3,0000.5,0008.56,0027.67,0005.24
2022-04-22 17:29:00,,0812.7,5.01,0.00,29.6,27.9,00.0,38.4,31.3,12.1,0000.4,0008.58,0028.86,0005.23
2022-04-22 17:30:00,,0812.7,4.99,0.00,29.6,28.1,00.0,38.5,31.4,12.2,0000.7,0008.67,0031.19,0005.24
2022-04-22 17:31:00,,0812.7,5.01,0.00,29.6,28.3,00.0,38.5,31.4,12.0,0001.2,0008.75,0031.03,0005.23
2022-04-22 17:32:00,,0812.6,4.99,0.00,29.7,28.5,00.0,38.5,31.5,12.1,0000.4,0008.79,0031.52,0005.20
2022-04-22 17:33:00,,0812.6,5.00,0.00,29.7,28.6,00.0,38.5,31.6,11.9,0000.0,0008.75,0031.40,0005.19
2022-04-22 17:34:00,,0812.6,5.01,0.00,29.8,28.7,00.0,38.5,31.6,11.6,0000.0,0008.70,0032.76,0005.17
2022-04-22 17:35:00,,0812.6,5.00,0.00,29.8,28.3,00.0,38.5,31.5,11.9,0000.0,0008.61,0032.63,0005.14
2022-04-22 17:36:00,,0812.5,4.99,0.00,29.7,26.3,00.0,38.5,31.1,11.8,0000.0,0008.58,0030.90,0005.11
2022-04-22 17:37:00,,0812.4,5.01,0.00,29.5,25.5,00.0,38.5,30.9,11.8,0000.0,0008.58,0030.34,0005.08
2022-04-22 17:38:00,,0812.4,4.99,0.00,29.5,25.9,00.0,38.5,31.0,12.1,0000.0,0008.51,0030.82,0005.05
2022-04-22 17:39:00,,0812.4,5.01,0.00,29.4,26.4,00.0,38.4,31.0,11.9,0000.0,0008.48,0029.82,0005.01
2022-04-22 17:40:00,,0812.3,4.99,0.00,29.4,26.8,00.0,38.4,31.0,11.8,0000.0,0008.38,0028.89,0004.99
2022-04-22 17:41:00,,0812.3,5.00,0.00,29.4,27.3,00.0,38.4,31.1,11.8,0000.0,0008.25,0027.44,0004.93
2022-04-22 17:42:00,,0812.2,5.01,0.00,29.5,27.6,00.0,38.4,31.2,11.4,0000.4,0008.15,0027.16,0004.89
2022-04-22 17:43:00,,0812.2,5.00,0.00,29.5,27.9,00.0,38.4,31.3,11.3,-000.0,0008.10,0026.41,0004.86
2022-04-22 17:44:00,,0812.1,4.98,0.00,29.5,28.1,00.0,38.4,31.3,11.1,-000.0,0008.09,0026.19,0004.81
2022-04-22 17:45:00,,0812.1,5.01,0.00,29.6,28.3,00.0,38.4,31.4,11.7,-000.3,0008.07,0024.00,0004.80
2022-04-22 17:46:00,,0812.1,4.99,0.00,29.6,28.5,00.0,38.4,31.5,11.5,-000.1,0008.00,0022.87,0004.79
2022-04-22 17:47:00,,0812.0,5.01,0.00,29.7,28.6,00.0,38.4,31.5,11.1,-000.2,0007.98,0023.52,0004.76
2022-04-22 17:48:00,,0812.0,4.99,0.00,29.7,28.7,00.0,38.4,31.5,11.2,-000.0,0007.91,0023.98,0004.71
2022-04-22 17:49:00,,0812.0,5.01,0.00,29.7,28.8,00.0,38.5,31.6,11.2,0000.1,0007.86,0023.54,0004.68
2022-04-22 17:50:00,,0811.9,4.99,0.00,29.8,28.2,00.0,38.5,31.5,10.9,0000.5,0007.72,0023.33,0004.64
2022-04-22 17:51:00,,0811.9,5.02,0.00,29.7,26.2,00.0,38.5,31.0,10.7,0001.0,0007.66,0024.71,0004.59
2022-04-22 17:52:00,,0811.9,4.99,0.00,29.5,25.5,00.0,38.5,30.9,10.3,0001.6,0007.58,0024.75,0004.55
2022-04-22 17:53:00,,0811.8,4.99,0.00,29.5,26.0,00.0,38.4,31.0,11.2,0000.0,0007.54,0023.87,0004.53
2022-04-22 17:54:00,,0811.7,5.01,0.00,29.4,26.4,00.0,38.4,31.0,11.2,0000.9,0007.58,0024.29,0004.53
2022-04-22 17:55:00,,0811.7,5.00,0.00,29.4,26.9,00.0,38.4,31.1,10.9,0000.3,0007.60,0026.01,0004.53
2022-04-22 17:56:00,,0811.6,5.01,0.00,29.5,27.3,00.0,38.4,31.2,10.8,0001.1,0007.58,0027.23,0004.48
2022-04-22 17:57:00,,0811.5,5.00,0.00,29.5,27.7,00.0,38.4,31.2,10.5,0001.2,0007.55,0027.57,0004.42
2022-04-22 17:58:00,,0811.5,4.99,0.00,29.5,27.9,00.0,38.4,31.3,10.1,0001.0,0007.43,0026.75,0004.37
2022-04-22 17:59:00,,0811.6,5.00,0.00,29.6,28.2,00.0,38.4,31.4,10.0,0000.4,0007.32,0025.83,0004.29
